Change the Weather History Date:

Tuesday, June 25, 2013

  Actual Average Record
Temperature  
Mean Temperature 79 °F 75 °F  
Max Temperature 90 °F 85 °F 101 °F (1988)
Min Temperature 68 °F 65 °F 45 °F (1979)
Degree Days  
Heating Degree Days 0 0  
Month to date heating degree days 0 8  
Since 1 June heating degree days 0 8  
Since 1 July heating degree days 4667 4608  
Cooling Degree Days 14 10  
Month to date cooling degree days 215 190  
Year to date cooling degree days 368 297  
Since 1 June cooling degree days 215 190  
Growing Degree Days 29 (Base 50)    
Moisture  
Dew Point 70 °F    
Average Humidity 73    
Maximum Humidity 93    
Minimum Humidity 52    
Precipitation  
Precipitation 0.00 in 0.13 in 2.01 in (1918)
Month to date precipitation 4.01 3.79  
Year to date precipitation 25.87 23.12  
Snow  
Snow 0.00 in 0.00 in - ()
Month to date snowfall 0.0 0.0  
Since 1 June snowfall 0.0 0.0  
Since 1 July snowfall 12.5 13.0  
Snow Depth 0.00 in    
Sea Level Pressure  
Sea Level Pressure 30.03 in    
Wind  
Wind Speed 7 mph (SSW)    
Max Wind Speed 14 mph    
Max Gust Speed 17 mph    
Visibility 9 miles    
Events      
T = Trace of Precipitation, MM = Missing Value Source: NWS Daily Summary

Daily Weather History Graph

Daily Weather History Graph

Search for Another Location

Airport or City:

Trip Planner

Search our weather history database for the weather conditions in past years. The results will help you decide how hot, cold, wet, or windy it might be!

Date:

Astronomy

Jun. 25, 2013 Rise Set
Actual Time 6:17 AM EDT 9:05 PM EDT
Civil Twilight 5:45 AM EDT 9:36 PM EDT
Nautical Twilight 5:06 AM EDT 10:16 PM EDT
Astronomical Twilight 4:21 AM EDT 11:00 PM EDT
Moon 10:53 PM EDT (6/25) 8:53 AM EDT (6/25)
Length of Visible Light 15h 50m
Length of Day
14h 48m
Waning Gibbous, 93% of the Moon is Illuminated
Jun 25
Waning Gibbous
Jun 30
Last Quarter
Jul 8
New
Jul 15
First Quarter
Jul 22
Full

Hourly Weather History & Observations

Time (EDT) Temp. Heat Index Dew Point Humidity Pressure Visibility Wind Dir Wind Speed Gust Speed Precip Events Conditions
12:54 AM 71.1 °F - 68.0 °F 90% 30.09 in 10.0 mi SSE 4.6 mph - N/A   Clear
1:54 AM 71.1 °F - 68.0 °F 90% 30.06 in 9.0 mi SSE 3.5 mph - N/A   Clear
2:54 AM 69.1 °F - 66.9 °F 93% 30.07 in 7.0 mi SSE 3.5 mph - N/A   Clear
3:54 AM 68.0 °F - 66.9 °F 96% 30.06 in 6.0 mi SSE 4.6 mph - N/A   Clear
4:54 AM 68.0 °F - 66.0 °F 93% 30.05 in 7.0 mi South 4.6 mph - N/A   Clear
5:54 AM 69.1 °F - 66.9 °F 93% 30.06 in 8.0 mi South 5.8 mph - N/A   Clear
6:54 AM 68.0 °F - 66.9 °F 96% 30.08 in 5.0 mi South 4.6 mph - N/A   Partly Cloudy
7:54 AM 72.0 °F - 69.1 °F 91% 30.09 in 9.0 mi SSW 6.9 mph - N/A   Clear
8:54 AM 75.0 °F - 69.1 °F 82% 30.09 in 10.0 mi SW 6.9 mph - N/A   Clear
9:54 AM 79.0 °F - 71.1 °F 77% 30.09 in 10.0 mi SW 8.1 mph - N/A   Clear
10:54 AM 82.0 °F 86.7 °F 72.0 °F 71% 30.08 in 10.0 mi SW 8.1 mph - N/A   Clear
11:54 AM 84.0 °F 89.6 °F 72.0 °F 67% 30.08 in 10.0 mi SW 9.2 mph - N/A   Partly Cloudy
12:54 PM 86.0 °F 93.0 °F 73.0 °F 65% 30.07 in 10.0 mi WSW 9.2 mph - N/A   Scattered Clouds
1:54 PM 87.1 °F 94.5 °F 73.0 °F 63% 30.06 in 10.0 mi Variable 4.6 mph - N/A   Mostly Cloudy
2:54 PM 89.1 °F 95.0 °F 71.1 °F 55% 30.03 in 10.0 mi West 8.1 mph - N/A   Clear
3:54 PM 88.0 °F 94.7 °F 72.0 °F 59% 30.01 in 10.0 mi SW 5.8 mph - N/A   Partly Cloudy
4:54 PM 89.1 °F 93.7 °F 69.1 °F 52% 29.99 in 10.0 mi WSW 10.4 mph - N/A   Clear
5:54 PM 88.0 °F 92.9 °F 70.0 °F 55% 29.97 in 10.0 mi WSW 8.1 mph - N/A   Clear
6:54 PM 86.0 °F 91.5 °F 71.1 °F 61% 29.96 in 10.0 mi SW 10.4 mph - N/A   Partly Cloudy
7:54 PM 84.9 °F 90.7 °F 72.0 °F 65% 29.96 in 10.0 mi SW 6.9 mph - N/A   Clear
8:54 PM 82.0 °F 86.3 °F 71.1 °F 69% 29.95 in 10.0 mi SSW 6.9 mph - N/A   Clear
9:54 PM 80.1 °F 83.6 °F 71.1 °F 74% 29.96 in 10.0 mi SSW 5.8 mph - N/A   Clear
10:54 PM 79.0 °F - 71.1 °F 77% 29.96 in 10.0 mi SSW 6.9 mph - N/A   Clear
11:54 PM 78.1 °F - 71.1 °F 79% 29.95 in 10.0 mi South 9.2 mph - N/A   Clear